Regional Weather Roundup
Issued by NWS

Home | Current Version | Previous Version | Text Only | Print | Product List | Glossary Off
Versions: 1 2 3 4 5 6 7 8 9 10 11 12 13 14 15 16 17 18 19 20 21 22 23 24 25 26 27 28 29 30 31 32 33 34 35 36 37 38 39 40 41 42 43 44 45 46 47 48 49 50

000
ASUS43 KIND 031259
RWRIN

WEATHER ROUNDUP FOR INDIANA
NATIONAL WEATHER SERVICE INDIANAPOLIS IN
800 AM EST TUE MAR 03 2015

NOTE: "FAIR" INDICATES FEW OR NO CLOUDS BELOW 12,000 FEET WITH NO
SIGNIFICANT WEATHER AND/OR OBSTRUCTIONS TO VISIBILITY.

* - STATION DOES NOT REPORT WEATHER SUCH AS PRECIPITATION OR FOG.

+ - STATION NOT QUALITY CONTROLLED BY THE NATIONAL WEATHER SERVICE.
    USE DATA WITH CAUTION...ESPECIALLY DEWPOINT AND RELATIVE
    HUMIDITY OBSERVATIONS.

INZ001>003-010>013-019-020-031400-
NORTHWEST INDIANA

CITY           SKY/WX    TMP DP  RH WIND       PRES   REMARKS
GARY /AIRPORT/ LGT SNOW  28  23  80 SE16      29.93F WCI  17
VALPARAISO     NOT AVBL

$$

LMZ046-743>745-031400-
SOUTHERN LAKE MICHIGAN

STATION/POSITION TIME  TEMP WIND        PRES
                       AIR  DIR/SP/G
                 (UTC) (F)  (DEG/KT/KT) (MB)
MICHIGAN CITY    1200   24  110/ 10/ 14   N/A

$$

INZ004-005-014>016-021>024-031400-
NORTH CENTRAL INDIANA

CITY           SKY/WX    TMP DP  RH WIND       PRES   REMARKS
ELKHART        CLOUDY    25  18  74 SE9       30.02F WCI  15
GOSHEN         CLOUDY    24  19  81 SE9       30.02F HAZE    WCI  14
SOUTH BEND     CLOUDY    25  19  78 SE14      29.99F WCI  13

$$

INZ006>009-017-018-025>027-031400-
NORTHEAST INDIANA

CITY           SKY/WX    TMP DP  RH WIND       PRES   REMARKS
ANGOLA *+      PTCLDY    19  18  93 SE9       30.07F WCI   9
FORT WAYNE     CLOUDY    26  20  77 SE6       30.08F WCI  19

$$

INZ028-029-035-036-043>045-051>053-031400-
WEST CENTRAL INDIANA

CITY           SKY/WX    TMP DP  RH WIND       PRES   REMARKS
CRAWFORDSVL +  CLOUDY    26  17  67 SE7       30.01F WCI  19
GREENCASTLE +  CLOUDY    28  18  64 SE8       30.01F WCI  20
LAFAYETTE      CLOUDY    27  22  81 SE10      29.98F WCI  17
TERRE HAUTE    CLOUDY    31  23  72 SE10      30.00F WCI  22

$$

INZ030>032-037>040-046>048-054>057-064-065-031400-
CENTRAL INDIANA

CITY           SKY/WX    TMP DP  RH WIND       PRES   REMARKS
GREENWOOD *+   CLOUDY    28  18  64 SE5       30.04F WCI  23
INDIANAPOLIS   CLOUDY    28  19  69 SE10      30.02F WCI  19
-EAGLE CREEK   CLOUDY    28  19  69 SE9       30.02F WCI  19
KOKOMO *+      CLOUDY    27  21  80 SE12      30.03F WCI  16
MT COMFORT *+  CLOUDY    28  12  50 SE7       30.04F WCI  21
SHELBYVILLE    NOT AVBL

$$

INZ033-034-041-042-049-050-058-059-031400-
EAST CENTRAL INDIANA

CITY           SKY/WX    TMP DP  RH WIND       PRES   REMARKS
MUNCIE         CLOUDY    28  19  69 SE6       30.06F WCI  22

$$

INZ060-061-067>069-081>083-085>088-031400-
SOUTHWEST INDIANA

CITY           SKY/WX    TMP DP  RH WIND       PRES   REMARKS
EVANSVILLE     LGT RAIN  36  27  69 S5        30.03F
HUNTINGBURG *+ CLOUDY    36  25  64 SE8       30.04F

$$

INZ062-063-066-070>080-084-089>092-031400-
SOUTH CENTRAL AND SOUTHEAST INDIANA

CITY           SKY/WX    TMP DP  RH WIND       PRES   REMARKS
BLOOMINGTON    CLOUDY    30  22  72 SE8       30.01F WCI  22
SEYMOUR +      CLOUDY    32  21  64 S6        30.07S WCI  26

$$




USA.gov is the U.S. government's official web portal to all federal, state and local government web resources and services.